DELTA 1 DEB, 10252

Orbit data source: Space-Track

DELTA 1 DEB, 10252 is space debris in LEO originally from a launch on Thu, 14 Jul 1977 UTC launched from the Air Force Eastern Test Range (AFETR). Debris objects in space refer to the collection of defunct objects orbiting the Earth. Examples of debris include non-operational satellites, rocket bodies, and fragments generated from explosions, collisions, or faulty payload assembly.

Loading next visibility...
Identifier
10252, 1977-065CD
Orbit
LEO
Country
Flag of USUS
Related business
Manufacturer
Unknown
Mission
Spacecraft
Bus & Motor
Unknown
Mass
Unknown
Launch date (UTC)
1977-07-14 (49 years ago)
Launch vehicle
Unknown
Launch site
Air Force Eastern Test Range (AFETR)
Object type
Payload
Rocket body
Debris
Shape & HBR
Unknown shape, 0.2 m
Radar Cross Section
Medium (>0.1 m² and <1 m²)

Expand to show TLE details & history
Last TLE update: 2 days ago

TLE from 2 days ago
0 DELTA 1 DEB
1 10252U 77065CD  26261.72329009  .00000958  00000-0  38742-3 0  9993
2 10252  28.8421  60.3688 0753848  90.2859 278.4017 13.27950534352284
Epoch: 2026-09-18T17:21Z
TLE epoch observation values (Epoch: 2026-09-18T17:21:32.263Z)
Latitude
-0.00004°
Longitude
162.34221°
Altitude
1,112.406 km
Speed
7.318 km/s
True Right ascension
04h 01m 28s
True Declination
0° 00' 00"
Sunlit
Object was in daylight at epoch
Visualization orbit readout
Latitude
Unknown
Longitude
Unknown
Altitude
Unknown
Speed
Unknown
Apparent Right ascension
Unknown
Apparent Declination
Unknown
Sunlit
N/A
Visualization observer readout
Local Sidereal Time
04:42:21
Azimuth
Unknown
Elevation
Unknown
Doppler factor
Unknown
Orbital elements
Apogee altitude
1,726.485 km
Perigee altitude
590.212 km
Semi-major axis
7,536.485 km
Eccentricity
0.07538
Inclination
28.8421°
RAAN
60.3688°
Arg. of periapsis
90.2859°
True anomaly
269.76953°
Mean anomaly
278.4017°
Eccentric anomaly
274.09349°
Mean motion
3.31734 °/min
Orbital period
108.52 mins
BSTAR
0.00038742
Loading maneuver chart data...
Computing Atmospheric mass density...

Documentation

Showing up to 5 results
|